sat.trackr.live / text

‹ back to catalog

STARLINK-1944

NORAD 46796 · 2020-074BK

PAYLOAD ACTIVE UNKNOWN

§ Identity

Operator
Country
US
Launch date
2020-10-24
Launch site
AFETR
Launch vehicle
Mass (kg)
RCS (m²)

Purposes: comms

External: N2YO · Heavens-Above · Gunter

§ Orbital elements

Epoch: 2026-05-25T00:00:02.000160Z

Period
91.01 min
Inclination
53.0394°
Eccentricity
0.0005562
Mean motion
15.82208193 rev/d
Perigee alt
320.5 km
Apogee alt
327.9 km
Semi-major
6,702.3 km
B*
6.1193e-4
RAAN
251.8311°
Arg perigee
301.2980°
Mean anomaly
243.6128°
Rev number
600

§ Raw data

STARLINK-19441 46796U 20074BK  26145.00002315  .00129851  00000+0  61193-3 0  99922 46796  53.0394 251.8311 0005562 301.2980 243.6128 15.82208193  6001

JSON: /api/v1/satellites/46796 · /tle

For live sub-satellite position, see the globe view (requires WebGL).

§ Visibility from observer

Set your observer location to see the next 7 days of passes ≥ 10°. The values pass through the URL so the page stays shareable.

No JS? Fill the form by hand. The geolocation button needs JavaScript.